Time,TemperatureF,DewpointF,PressureIn,WindDirection,WindDirectionDegrees,WindSpeedMPH,WindSpeedGustMPH,Humidity,HourlyPrecipIn,Conditions,Clouds,dailyrainin,SoftwareType,DateUTC
2013-07-22 00:01:00,65.0,25.0,-100.00,ESE,102,2.0,4.0,21,0.00,,,0.00,,2013-07-22 06:01:00,
2013-07-22 00:11:00,65.0,25.0,-100.00,ESE,102,2.0,4.0,21,0.00,,,0.00,,2013-07-22 06:11:00,
2013-07-22 00:22:00,65.0,25.0,-100.00,ESE,102,2.0,4.0,21,0.00,,,0.00,,2013-07-22 06:22:00,
2013-07-22 00:43:00,65.0,25.0,-100.00,East,95,2.0,4.0,22,0.00,,,0.00,,2013-07-22 06:43:00,
2013-07-22 00:52:00,65.0,25.0,-100.00,East,95,2.0,4.0,22,0.00,,,0.00,,2013-07-22 06:52:00,
2013-07-22 01:01:00,63.0,28.0,-100.00,East,79,1.0,2.0,26,0.00,,,0.00,,2013-07-22 07:01:00,
2013-07-22 01:11:00,63.0,28.0,-100.00,East,79,1.0,2.0,26,0.00,,,0.00,,2013-07-22 07:11:00,
2013-07-22 01:22:00,63.0,28.0,-100.00,East,79,1.0,2.0,26,0.00,,,0.00,,2013-07-22 07:22:00,
2013-07-22 01:33:00,62.0,31.0,-100.00,East,80,1.0,2.0,30,0.00,,,0.00,,2013-07-22 07:33:00,
2013-07-22 01:43:00,62.0,31.0,-100.00,East,80,1.0,2.0,30,0.00,,,0.00,,2013-07-22 07:43:00,
2013-07-22 01:53:00,62.0,31.0,-100.00,East,80,1.0,2.0,30,0.00,,,0.00,,2013-07-22 07:53:00,
2013-07-22 11:32:00,71.0,50.0,-100.00,SSW,198,1.0,2.0,49,0.00,,,0.00,,2013-07-22 17:32:00,
2013-07-22 11:43:00,77.0,31.0,-100.00,ESE,109,3.0,6.0,19,0.00,,,0.00,,2013-07-22 17:43:00,
2013-07-22 11:52:00,77.0,31.0,-100.00,ESE,109,3.0,6.0,19,0.00,,,0.00,,2013-07-22 17:52:00,
2013-07-22 12:33:00,78.0,41.0,-100.00,WNW,284,5.0,6.0,27,0.00,,,0.00,,2013-07-22 18:33:00,
2013-07-22 12:45:00,80.0,28.0,-100.00,West,271,2.0,5.0,15,0.00,,,0.00,,2013-07-22 18:45:00,
2013-07-22 12:57:00,80.0,28.0,-100.00,West,271,2.0,5.0,15,0.00,,,0.00,,2013-07-22 18:57:00,
2013-07-22 13:13:00,80.0,28.0,-100.00,West,271,2.0,5.0,15,0.00,,,0.00,,2013-07-22 19:13:00,
2013-07-22 13:22:00,83.0,27.0,-100.00,North,0,4.0,6.0,13,0.00,,,0.00,,2013-07-22 19:22:00,
2013-07-22 13:43:00,84.0,25.0,-100.00,West,280,2.0,4.0,11,0.00,,,0.00,,2013-07-22 19:43:00,
2013-07-22 13:55:00,84.0,25.0,-100.00,West,280,2.0,4.0,11,0.00,,,0.00,,2013-07-22 19:55:00,
2013-07-22 14:03:00,84.0,25.0,-100.00,West,280,2.0,4.0,11,0.00,,,0.00,,2013-07-22 20:03:00,
2013-07-22 14:22:00,85.0,23.0,-100.00,West,272,3.0,6.0,10,0.00,,,0.00,,2013-07-22 20:22:00,
2013-07-22 14:32:00,85.0,23.0,-100.00,West,272,3.0,6.0,10,0.00,,,0.00,,2013-07-22 20:32:00,
2013-07-22 14:43:00,85.0,26.0,-100.00,WSW,247,3.0,8.0,11,0.00,,,0.00,,2013-07-22 20:43:00,
2013-07-22 14:52:00,85.0,26.0,-100.00,WSW,247,3.0,8.0,11,0.00,,,0.00,,2013-07-22 20:52:00,
2013-07-22 15:01:00,85.0,26.0,-100.00,WSW,247,3.0,8.0,11,0.00,,,0.00,,2013-07-22 21:01:00,
2013-07-22 15:22:00,87.0,22.0,-100.00,SW,229,2.0,4.0,9,0.00,,,0.00,,2013-07-22 21:22:00,
2013-07-22 15:30:00,88.0,21.0,-100.00,SSE,162,2.0,3.0,9,0.00,,,0.00,,2013-07-22 21:30:00,
2013-07-22 15:32:00,87.0,22.0,-100.00,SW,229,2.0,4.0,9,0.00,,,0.00,,2013-07-22 21:32:00,
2013-07-22 15:43:00,87.0,20.0,-100.00,WNW,288,3.0,4.0,9,0.00,,,0.00,,2013-07-22 21:43:00,
2013-07-22 15:53:00,87.0,20.0,-100.00,WNW,288,3.0,4.0,9,0.00,,,0.00,,2013-07-22 21:53:00,
2013-07-22 16:01:00,87.0,20.0,-100.00,WNW,288,3.0,4.0,9,0.00,,,0.00,,2013-07-22 22:01:00,
2013-07-22 16:22:00,88.0,21.0,-100.00,SSE,162,2.0,3.0,9,0.00,,,0.00,,2013-07-22 22:22:00,
2013-07-22 17:11:00,88.0,21.0,-100.00,WNW,287,2.0,4.0,9,0.00,,,0.00,,2013-07-22 23:11:00,
2013-07-22 17:42:00,87.0,26.0,-100.00,SSW,206,3.0,6.0,11,0.00,,,0.00,,2013-07-22 23:42:00,
2013-07-22 17:52:00,87.0,26.0,-100.00,SSW,206,3.0,6.0,11,0.00,,,0.00,,2013-07-22 23:52:00,
2013-07-22 18:00:00,85.0,24.0,-100.00,WNW,287,2.0,4.0,11,0.00,,,-99.99,,2013-07-23 00:00:00,
2013-07-22 18:01:00,87.0,24.0,-100.00,WSW,256,2.0,6.0,10,0.00,,,-99.99,,2013-07-23 00:01:00,
2013-07-22 18:11:00,87.0,24.0,-100.00,WSW,256,2.0,6.0,10,0.00,,,-99.99,,2013-07-23 00:11:00,
2013-07-22 18:22:00,87.0,24.0,-100.00,WSW,256,2.0,6.0,10,0.00,,,-99.99,,2013-07-23 00:22:00,
2013-07-22 18:43:00,85.0,24.0,-100.00,WNW,287,2.0,4.0,11,0.00,,,-99.99,,2013-07-23 00:43:00,
2013-07-22 18:52:00,85.0,24.0,-100.00,WNW,287,2.0,4.0,11,0.00,,,-99.99,,2013-07-23 00:52:00,
2013-07-22 19:30:00,83.0,30.0,-100.00,WNW,291,2.0,3.0,15,0.00,,,-99.99,,2013-07-23 01:30:00,
2013-07-22 19:32:00,85.0,27.0,-100.00,WNW,285,2.0,3.0,12,0.00,,,-99.99,,2013-07-23 01:32:00,
2013-07-22 19:43:00,85.0,27.0,-100.00,WNW,285,2.0,3.0,12,0.00,,,-99.99,,2013-07-23 01:43:00,
2013-07-22 19:53:00,85.0,27.0,-100.00,WNW,285,2.0,3.0,12,0.00,,,-99.99,,2013-07-23 01:53:00,
2013-07-22 20:01:00,83.0,30.0,-100.00,WNW,291,2.0,3.0,15,0.00,,,-99.99,,2013-07-23 02:01:00,
2013-07-22 20:11:00,83.0,30.0,-100.00,WNW,291,2.0,3.0,15,0.00,,,-99.99,,2013-07-23 02:11:00,
2013-07-22 20:22:00,83.0,30.0,-100.00,WNW,291,2.0,3.0,15,0.00,,,-99.99,,2013-07-23 02:22:00,
2013-07-22 20:43:00,79.0,31.0,-100.00,WNW,301,1.0,2.0,18,0.00,,,-99.99,,2013-07-23 02:43:00,
2013-07-22 20:53:00,79.0,31.0,-100.00,WNW,301,1.0,2.0,18,0.00,,,-99.99,,2013-07-23 02:53:00,
2013-07-22 21:01:00,79.0,31.0,-100.00,WNW,301,1.0,2.0,18,0.00,,,-99.99,,2013-07-23 03:01:00,
2013-07-22 21:11:00,76.0,34.0,-100.00,NE,45,0.0,2.0,22,0.00,,,-99.99,,2013-07-23 03:11:00,
2013-07-22 21:22:00,76.0,34.0,-100.00,NE,45,0.0,2.0,22,0.00,,,-99.99,,2013-07-23 03:22:00,
2013-07-22 21:33:00,76.0,34.0,-100.00,NE,45,0.0,2.0,22,0.00,,,-99.99,,2013-07-23 03:33:00,
2013-07-22 21:43:00,72.0,38.0,-100.00,ESE,102,2.0,3.0,28,0.00,,,-99.99,,2013-07-23 03:43:00,
2013-07-22 21:52:00,72.0,38.0,-100.00,ESE,102,2.0,3.0,28,0.00,,,-99.99,,2013-07-23 03:52:00,
2013-07-22 22:01:00,72.0,38.0,-100.00,ESE,102,2.0,3.0,28,0.00,,,-99.99,,2013-07-23 04:01:00,
2013-07-22 22:11:00,72.0,38.0,-100.00,ESE,102,2.0,3.0,28,0.00,,,-99.99,,2013-07-23 04:11:00,
2013-07-22 22:21:00,69.0,39.0,-100.00,ESE,104,2.0,3.0,34,0.00,,,-99.99,,2013-07-23 04:21:00,
2013-07-22 22:32:00,69.0,39.0,-100.00,ESE,104,2.0,3.0,34,0.00,,,-99.99,,2013-07-23 04:32:00,
2013-07-22 22:53:00,67.0,32.0,-100.00,ENE,65,2.0,3.0,28,0.00,,,-99.99,,2013-07-23 04:53:00,
2013-07-22 23:02:00,67.0,32.0,-100.00,ENE,65,2.0,3.0,28,0.00,,,-99.99,,2013-07-23 05:02:00,
2013-07-22 23:22:00,67.0,30.0,-100.00,ENE,78,2.0,2.0,25,0.00,,,-99.99,,2013-07-23 05:22:00,
2013-07-22 23:33:00,67.0,30.0,-100.00,ENE,78,2.0,2.0,25,0.00,,,-99.99,,2013-07-23 05:33:00,
2013-07-22 23:43:00,69.0,31.0,-100.00,ESE,112,1.0,2.0,24,0.00,,,-99.99,,2013-07-23 05:43:00,
2013-07-22 23:52:00,69.0,31.0,-100.00,ESE,112,1.0,2.0,24,0.00,,,-99.99,,2013-07-23 05:52:00,